Wind_Speed
17 16 13 8 4 2 1 2 4 5 3 4 2 2 3 4 4 4 6 8 9 10 9 9 10 10 12 13 15 18 20 21 23 22 21 20 19 18 18 18 19 19 19 19
19 17 14 12 9 7 6 6 6 4 2 3 3 2 2 1 2 4 6 7 8 9 10 10 11 11 12 14 16 19 21 21 21 20 17 16 16 17 18 18 19 20 20 20
18 16 14 12 12 11 9 8 8 7 6 5 4 3 1 1 2 4 5 7 8 9 10 10 11 12 14 15 16 17 18 18 17 17 17 17 17 18 19 19 20 20 20 20
19 16 14 13 11 11 10 10 9 8 7 5 4 3 1 0 2 3 4 4 5 7 8 9 11 12 14 15 16 16 17 17 18 19 19 18 18 19 20 20 21 21 20 20
18 15 14 12 11 11 10 9 8 7 6 5 4 3 2 1 1 2 3 4 5 6 7 8 10 12 14 15 16 17 18 19 19 20 20 20 20 21 21 20 21 20 20 20
17 14 12 11 10 10 9 9 8 7 6 5 3 3 2 1 1 2 2 3 4 5 6 8 10 12 13 15 16 18 19 19 19 20 20 20 20 20 20 19 20 20 20 20
16 14 12 10 8 8 7 6 5 5 4 4 3 3 2 1 1 2 2 4 6 7 8 10 11 13 14 16 17 18 18 19 19 19 19 20 19 19 18 18 19 20 20 20
14 12 10 8 6 6 6 5 4 3 3 2 2 2 3 2 2 2 3 5 7 9 10 12 13 14 15 17 18 18 18 19 19 19 19 19 18 18 19 19 19 20 20 20
14 11 9 7 5 4 4 3 3 2 2 2 2 2 1 1 1 3 4 6 9 11 12 13 14 15 16 17 18 18 18 18 18 18 18 18 18 18 18 19 19 20 19 19
14 12 10 8 5 4 3 2 2 1 1 1 1 1 1 1 2 4 6 7 10 11 13 14 15 16 17 17 17 17 17 17 17 18 18 18 18 18 18 18 18 18 18 19
15 13 11 9 8 5 4 3 1 1 1 2 2 2 2 2 3 5 7 9 10 12 13 15 16 16 16 17 16 16 17 17 17 17 17 17 17 16 16 16 16 16 16 17
18 16 13 11 9 7 5 4 3 3 3 3 4 4 3 4 4 6 8 10 11 12 14 15 15 16 16 17 17 17 17 17 17 17 16 15 14 14 14 14 14 13 13 12
21 19 16 12 9 8 7 5 6 6 6 6 6 6 6 5 5 7 8 10 12 13 14 15 15 16 17 17 18 18 18 17 16 15 14 13 12 12 12 11 11 10 10 9
22 21 18 15 11 9 8 7 8 9 9 10 9 9 8 7 7 7 8 10 12 13 15 15 16 16 17 18 18 18 17 16 15 14 13 12 11 10 10 9 9 8 8 7
23 22 20 18 15 12 9 8 9 10 10 11 11 11 10 9 8 8 8 9 11 13 14 15 16 16 17 18 18 17 17 16 14 13 12 10 9 9 9 8 8 8 7 7
24 23 22 20 18 15 11 9 9 10 10 11 12 12 12 11 9 8 8 8 10 12 13 14 15 16 17 17 18 17 16 16 14 13 12 11 10 9 9 9 9 9 9 8
24 24 23 22 20 16 12 10 11 11 11 12 12 13 14 12 11 9 7 7 9 10 12 13 15 16 16 17 17 17 16 16 15 14 13 12 11 11 10 10 10 10 10 10
23 25 25 24 21 18 14 13 12 12 13 15 15 15 15 14 12 10 8 7 7 9 10 12 13 14 15 16 17 17 17 16 16 15 14 14 13 13 12 12 12 12 12 12
22 24 25 24 22 20 17 16 15 14 15 16 16 17 17 15 14 12 10 7 7 7 8 10 11 12 13 14 15 16 16 16 16 16 16 15 14 14 14 13 13 13 13 13
20 22 24 24 22 21 21 20 18 16 14 12 13 13 14 15 14 12 10 8 6 5 6 8 9 10 11 12 13 14 15 15 15 15 15 15 15 14 14 14 14 14 14 14
18 20 22 23 23 22 22 22 20 17 14 10 8 9 11 13 13 12 11 8 6 5 4 6 7 8 9 11 12 13 13 13 13 13 14 14 14 14 14 14 14 14 14 14
16 19 21 22 23 23 22 22 21 18 14 8 5 7 10 11 12 12 11 9 6 4 4 4 5 6 7 8 10 10 11 11 12 12 13 13 13 14 14 14 13 13 13 13
16 17 19 21 22 22 22 21 20 17 12 7 4 6 9 11 12 12 11 10 8 6 4 3 3 4 5 6 7 8 8 9 10 10 11 11 12 12 12 12 12 12 12 12
16 17 18 19 20 21 22 20 18 16 12 8 6 7 9 11 12 13 12 11 9 7 6 5 4 3 3 3 4 5 6 6 7 8 9 9 9 10 10 10 10 11 11 11
18 17 18 18 19 20 21 21 19 16 14 11 9 8 10 12 14 14 14 13 12 9 8 6 5 4 3 3 2 3 3 4 5 6 7 7 8 8 8 8 9 9 10 10
20 19 19 18 19 19 20 20 19 18 16 13 11 10 11 13 15 17 17 16 15 12 11 9 8 7 6 4 3 2 2 2 3 4 5 6 7 7 7 7 7 7 8 8
23 22 21 20 20 20 20 20 20 19 18 16 14 12 13 14 16 18 19 19 18 16 14 12 10 9 8 7 6 5 4 3 3 3 4 5 6 6 6 6 6 6 7 7
Wind_Direction
20 24 32 36 60 103 159 178 186 206 260 268 258 230 245 266 277 281 287 290 296 298 293 282 273 266 269 272 275 276 278 279 280 281 276 274 272 275 274 274 276 277 277 275
32 36 41 49 69 76 92 104 118 125 102 112 122 129 153 212 280 293 297 294 298 297 291 285 282 279 280 284 283 282 283 284 286 288 288 283 282 279 279 279 281 280 278 277
32 41 49 57 67 79 95 97 98 103 104 111 109 122 144 231 279 298 299 291 288 284 284 282 287 289 290 292 289 288 288 288 291 289 292 290 287 283 282 285 287 284 281 279
35 43 52 59 66 70 79 89 95 102 105 105 106 113 119 332 312 309 298 290 291 296 294 289 287 288 291 292 294 294 294 294 294 294 293 294 292 289 287 287 287 287 284 280
38 43 51 59 65 70 73 82 90 96 96 96 102 102 101 93 14 311 303 295 295 297 297 294 291 292 294 297 298 298 298 298 298 297 296 294 293 292 290 288 287 288 287 284
35 40 50 56 64 70 71 77 77 79 83 79 83 79 68 65 11 322 317 315 316 314 308 305 304 303 302 302 302 302 302 301 300 299 298 296 295 293 291 289 288 288 287 285
35 40 49 52 58 65 66 67 70 68 66 58 54 57 57 54 25 353 336 332 328 322 318 314 312 311 310 309 308 307 305 304 303 302 301 299 297 295 292 291 289 288 287 285
30 35 40 40 51 56 54 42 53 51 52 52 61 69 70 70 45 4 341 335 331 326 322 319 318 316 315 314 313 310 309 307 306 305 304 303 301 297 294 293 292 290 288 285
26 30 28 29 33 31 22 17 25 36 71 73 78 80 67 56 23 345 337 336 333 329 327 326 324 321 320 318 316 313 311 310 310 309 308 306 304 301 298 297 295 293 290 286
13 14 12 10 1 341 340 350 4 69 132 108 87 41 344 337 335 333 334 335 333 331 330 330 329 327 325 322 319 316 315 314 313 312 312 311 308 305 303 302 300 295 291 288
6 2 357 355 350 333 320 308 293 222 212 237 249 268 277 290 315 327 331 334 335 333 332 333 334 333 331 328 324 321 319 318 316 314 313 312 311 309 309 308 306 301 296 294
3 358 353 347 342 331 305 277 254 242 248 255 256 255 263 276 302 321 329 334 336 337 337 338 339 338 337 335 333 330 327 325 323 321 319 317 316 316 316 316 315 313 309 304
4 1 356 348 333 322 307 270 251 252 253 254 255 257 263 275 292 310 323 331 337 341 342 342 343 344 343 341 340 338 336 335 333 332 330 328 326 326 327 328 329 330 328 326
2 4 4 359 346 329 308 281 265 262 260 255 257 260 263 269 282 297 314 327 336 341 344 346 348 349 349 347 346 346 345 345 345 345 344 341 341 342 346 349 351 353 355 357
357 358 359 357 350 339 321 294 279 273 265 256 255 257 259 263 273 287 306 323 334 341 346 349 352 354 354 354 355 356 357 358 359 0 1 1 4 5 8 12 15 17 20 24
353 355 355 353 348 340 329 309 292 281 270 260 257 253 253 257 266 278 296 317 332 342 348 353 356 358 1 3 5 7 10 12 13 15 19 22 25 26 28 32 36 37 40 43
349 351 352 351 349 343 332 316 301 288 276 266 261 255 251 252 259 270 286 307 326 340 349 355 359 2 7 10 13 17 20 22 24 27 31 35 38 40 44 48 49 51 52 54
345 348 349 350 350 347 337 325 310 291 279 270 263 258 253 251 254 261 272 292 316 334 346 355 1 6 12 16 19 22 26 30 33 37 43 47 50 52 56 58 59 59 60 61
342 345 347 348 349 348 342 334 324 309 290 273 262 255 252 249 248 251 257 273 300 326 342 354 2 8 15 20 24 28 31 34 39 44 49 53 57 59 61 61 61 62 63 63
338 342 345 346 346 346 345 343 335 326 311 287 266 253 246 241 239 242 245 255 278 310 335 351 2 9 17 24 29 31 33 37 41 46 51 55 59 61 61 62 63 63 62 62
331 337 341 344 343 343 345 347 345 340 331 306 269 244 232 230 232 234 235 241 256 286 321 345 360 10 19 25 30 33 35 38 43 48 52 55 58 60 61 61 62 61 61 60
321 328 334 339 342 341 342 345 348 348 345 332 271 232 228 230 229 228 228 231 239 258 291 328 352 6 16 24 30 33 36 40 44 49 53 55 56 58 59 59 59 59 59 59
308 317 325 331 336 340 340 342 347 350 349 339 279 235 231 230 226 223 223 225 229 241 261 292 326 352 7 19 27 31 34 38 43 47 50 52 52 52 53 55 55 54 54 53
295 306 315 321 327 333 337 338 341 345 342 332 299 256 240 232 224 221 222 223 226 235 248 265 285 314 340 2 18 27 30 33 39 43 44 44 44 45 47 48 47 46 45 44
283 294 303 310 316 322 328 332 333 334 335 323 304 275 248 234 228 227 227 227 227 231 240 249 259 275 291 309 340 6 20 25 32 35 35 34 34 36 37 38 38 39 39 38
275 282 291 299 305 311 316 320 325 325 325 321 305 281 258 245 238 234 233 231 230 231 235 240 247 256 265 269 275 291 318 348 5 12 14 16 19 21 24 25 27 29 30 29
269 275 282 289 294 298 302 307 311 315 316 317 311 292 269 255 246 240 236 234 232 230 231 235 241 247 254 257 257 259 264 275 295 316 333 344 352 359 4 9 13 18 21 21
Height
5758 5754 5752 5751 5752 5753 5755 5758 5760 5763 5765 5766 5767 5768 5769 5770 5771 5772 5773 5774 5775 5776 5777 5778 5779 5780 5781 5782 5781 5780 5779 5778 5775 5774 5773 5772 5772 5771 5771 5771 5771 5771 5770 5769
5763 5760 5757 5756 5756 5757 5758 5759 5762 5764 5766 5766 5767 5768 5769 5770 5771 5772 5772 5773 5774 5774 5774 5775 5775 5776 5776 5776 5776 5775 5774 5772 5770 5769 5767 5766 5765 5765 5765 5765 5765 5765 5764 5763
5767 5765 5763 5763 5762 5761 5762 5763 5764 5766 5768 5768 5769 5769 5770 5771 5771 5772 5772 5772 5773 5773 5773 5772 5772 5772 5772 5772 5771 5771 5769 5768 5766 5764 5762 5762 5761 5760 5759 5759 5759 5758 5758 5757
5772 5770 5768 5769 5766 5766 5766 5766 5767 5768 5769 5769 5770 5770 5771 5771 5772 5772 5772 5772 5772 5772 5771 5771 5770 5770 5769 5768 5767 5766 5765 5764 5762 5760 5759 5757 5756 5755 5754 5753 5752 5752 5751 5751
5776 5773 5771 5770 5769 5769 5769 5769 5770 5770 5771 5771 5771 5772 5772 5772 5772 5773 5773 5772 5772 5771 5771 5770 5769 5768 5767 5765 5764 5762 5761 5759 5758 5756 5754 5753 5751 5750 5749 5747 5746 5745 5745 5744
5780 5777 5775 5775 5773 5772 5773 5772 5772 5772 5772 5772 5772 5773 5773 5773 5773 5773 5773 5772 5772 5771 5770 5769 5768 5767 5765 5763 5761 5759 5757 5755 5753 5751 5749 5748 5746 5744 5743 5741 5740 5739 5739 5738
5784 5781 5778 5777 5775 5775 5776 5776 5774 5773 5773 5773 5773 5773 5773 5773 5773 5773 5773 5772 5772 5771 5769 5768 5766 5765 5762 5760 5758 5756 5753 5751 5749 5747 5744 5742 5740 5738 5737 5736 5734 5733 5732 5732
5786 5783 5783 5779 5777 5777 5777 5775 5774 5774 5774 5773 5773 5773 5773 5773 5773 5773 5773 5772 5771 5770 5768 5766 5764 5762 5760 5757 5755 5752 5749 5747 5744 5742 5739 5737 5735 5733 5731 5730 5729 5727 5726 5725
5789 5787 5783 5780 5778 5777 5776 5775 5775 5774 5774 5774 5774 5774 5774 5774 5774 5773 5773 5772 5770 5769 5767 5765 5762 5760 5757 5754 5751 5748 5745 5743 5740 5737 5734 5732 5730 5728 5726 5724 5722 5721 5720 5719
5790 5786 5783 5780 5778 5777 5776 5775 5774 5774 5774 5774 5774 5774 5774 5774 5774 5773 5772 5771 5770 5768 5765 5763 5760 5757 5754 5751 5748 5745 5742 5739 5736 5733 5730 5728 5725 5723 5721 5719 5717 5715 5713 5712
5790 5786 5783 5780 5778 5776 5775 5774 5773 5773 5773 5774 5774 5774 5774 5773 5773 5772 5771 5770 5768 5766 5764 5761 5758 5755 5752 5748 5745 5742 5739 5735 5732 5729 5726 5724 5721 5719 5716 5714 5712 5710 5708 5706
5791 5786 5782 5779 5777 5775 5774 5773 5773 5772 5773 5772 5772 5772 5772 5772 5772 5771 5770 5768 5767 5765 5762 5759 5756 5753 5749 5746 5742 5739 5735 5732 5728 5725 5722 5720 5717 5715 5713 5711 5708 5706 5704 5702
5791 5786 5781 5778 5775 5774 5772 5772 5771 5771 5771 5771 5771 5771 5771 5770 5770 5769 5768 5767 5765 5763 5761 5758 5754 5751 5747 5744 5740 5736 5732 5729 5725 5722 5719 5716 5714 5712 5710 5708 5706 5704 5702 5700
5791 5786 5781 5777 5775 5772 5771 5770 5769 5769 5768 5768 5768 5768 5768 5768 5768 5768 5767 5766 5764 5761 5759 5756 5753 5749 5746 5742 5738 5734 5730 5726 5723 5720 5717 5714 5712 5710 5709 5707 5705 5703 5701 5699
5791 5786 5781 5777 5773 5770 5768 5767 5766 5766 5765 5765 5765 5765 5765 5765 5766 5765 5765 5764 5762 5760 5758 5755 5752 5749 5745 5741 5737 5733 5729 5725 5722 5719 5716 5714 5712 5710 5709 5707 5705 5704 5702 5701
5791 5786 5780 5776 5771 5768 5766 5764 5763 5762 5761 5761 5761 5761 5762 5763 5763 5763 5763 5762 5761 5759 5757 5754 5751 5748 5744 5741 5737 5733 5729 5726 5722 5719 5717 5715 5713 5711 5710 5708 5707 5705 5704 5703
5790 5785 5780 5775 5770 5766 5763 5762 5760 5759 5758 5757 5757 5758 5758 5759 5760 5761 5761 5760 5759 5758 5756 5754 5751 5748 5745 5741 5738 5734 5731 5727 5724 5721 5719 5716 5715 5713 5712 5710 5709 5708 5707 5706
5788 5783 5779 5773 5768 5764 5761 5759 5757 5755 5754 5753 5752 5753 5754 5756 5757 5758 5758 5758 5758 5757 5756 5754 5752 5749 5746 5743 5740 5736 5733 5730 5727 5724 5721 5719 5718 5716 5715 5714 5712 5711 5710 5709
5786 5782 5777 5772 5768 5763 5760 5756 5753 5750 5747 5746 5745 5746 5749 5751 5753 5754 5756 5756 5757 5756 5755 5754 5752 5750 5747 5745 5742 5739 5736 5733 5730 5728 5725 5723 5721 5720 5719 5717 5716 5715 5714 5713
5784 5780 5776 5771 5767 5763 5758 5754 5750 5745 5742 5739 5739 5740 5743 5746 5749 5751 5752 5754 5755 5755 5755 5754 5752 5751 5749 5746 5744 5741 5739 5736 5734 5732 5729 5727 5726 5724 5723 5722 5721 5719 5718 5717
5781 5778 5774 5770 5766 5762 5757 5753 5748 5743 5739 5736 5736 5737 5739 5743 5745 5748 5750 5752 5754 5754 5754 5754 5753 5751 5750 5748 5746 5744 5742 5740 5738 5736 5734 5732 5730 5729 5727 5726 5725 5724 5723 5721
5778 5775 5772 5768 5764 5760 5756 5752 5748 5743 5739 5736 5735 5737 5739 5741 5743 5746 5748 5750 5752 5753 5754 5753 5753 5752 5751 5749 5748 5746 5745 5743 5741 5740 5738 5736 5735 5733 5732 5730 5729 5728 5727 5725
5774 5772 5769 5766 5763 5759 5755 5751 5748 5744 5741 5738 5737 5738 5739 5740 5742 5744 5747 5749 5751 5752 5753 5753 5753 5752 5751 5750 5749 5748 5747 5746 5744 5743 5741 5740 5739 5737 5736 5734 5733 5732 5730 5729
5769 5768 5766 5763 5760 5757 5754 5750 5747 5745 5742 5740 5739 5738 5739 5739 5741 5743 5746 5748 5749 5751 5752 5752 5752 5752 5752 5751 5750 5749 5748 5748 5747 5745 5744 5743 5742 5740 5739 5738 5736 5735 5733 5732
5763 5762 5761 5759 5757 5754 5752 5749 5746 5744 5742 5740 5739 5738 5738 5739 5740 5742 5744 5746 5748 5749 5750 5751 5751 5751 5751 5751 5750 5750 5749 5749 5748 5747 5746 5745 5744 5743 5741 5740 5739 5737 5736 5734
5757 5756 5755 5754 5753 5751 5748 5746 5744 5742 5740 5738 5737 5736 5736 5737 5738 5739 5741 5743 5745 5746 5748 5749 5750 5750 5750 5750 5750 5750 5750 5749 5749 5748 5747 5747 5745 5744 5743 5742 5740 5739 5737 5736
5749 5749 5749 5748 5747 5746 5744 5742 5740 5738 5737 5735 5734 5733 5733 5733 5734 5735 5737 5739 5741 5743 5745 5746 5747 5748 5748 5749 5749 5749 5749 5749 5749 5748 5748 5747 5746 5745 5744 5743 5741 5740 5739 5737